Regional Weather Roundup
Issued by NWS

Home | Current Version | Previous Version | Graphics & Text | Print | Product List | Glossary On
Versions: 1 2 3 4 5 6 7 8 9 10 11 12 13 14 15 16 17 18 19 20 21 22 23 24 25 26 27 28 29 30 31 32 33 34 35 36 37 38 39 40 41 42 43 44 45 46 47 48 49 50
000
ASUS43 KTOP 031759
RWRKS

WEATHER ROUNDUP FOR KANSAS
NATIONAL WEATHER SERVICE GOODLAND KS
100 PM CDT THU SEP 03 2015

NOTE:  "FAIR" INDICATES FEW OR NO CLOUDS BELOW 12,000 FEET WITH NO
SIGNIFICANT WEATHER AND/OR OBSTRUCTIONS TO VISIBILITY.

KSZ001>006-013>018-027>032-041>047-031900-
NORTHWEST KANSAS

CITY           SKY/WX    TMP DP  RH WIND       PRES   REMARKS
GOODLAND       PTSUNNY   90  48  23 S3        29.87F
6HR MIN TEMP:  59; 6HR MAX TEMP:  90;

HAYS           MOSUNNY   97  59  28 S21G29    29.82F HX  96
HILL CITY      MOSUNNY   95  58  28 S12G21    29.82F
6HR MIN TEMP:  72; 6HR MAX TEMP:  95;

RUSSELL        SUNNY     95  59  30 S21       29.82F
6HR MIN TEMP:  73; 6HR MAX TEMP:  95;

$$

KSZ061>065-074>080-084>089-031900-
SOUTHWEST KANSAS

CITY           SKY/WX    TMP DP  RH WIND       PRES   REMARKS
DODGE CITY     MOSUNNY   92  56  29 S20G26    29.89F
6HR MIN TEMP:  69; 6HR MAX TEMP:  92;

ELKHART          N/A     94  56  27 S8          N/A
GARDEN CITY    MOSUNNY   92  58  31 S14G23    29.86F
6HR MIN TEMP:  64; 6HR MAX TEMP:  92;

GREAT BEND     SUNNY     93  63  36 S21G28    29.85F
LIBERAL        PTSUNNY   91  57  31 S12       29.90F
$$

KSZ066>073-081>083-090>101-031900-
SOUTHEAST KANSAS

CITY           SKY/WX    TMP DP  RH WIND       PRES   REMARKS
CHANUTE        SUNNY     87  70  56 S13       29.97F
6HR MIN TEMP:  68; 6HR MAX TEMP:  87;

COFFEYVILLE    SUNNY     86  71  60 S13G18    29.97F
6HR MIN TEMP:  68; 6HR MAX TEMP:  86;

HUTCHINSON     SUNNY     93  62  35 S25G33    29.89F
6HR MIN TEMP:  70; 6HR MAX TEMP:  93;

NEWTON         SUNNY     91  63  38 S25G31    29.93F
PARSONS        SUNNY     86  72  62 S7        29.98F
6HR MIN TEMP:  70; 6HR MAX TEMP:  86;

WICHITA INTL   MOSUNNY   92  64  39 S21G28    29.91F
6HR MIN TEMP:  71; 6HR MAX TEMP:  92;

WICHITA JABRA  SUNNY     88  66  48 S18G28    29.92F
6HR MIN TEMP:  70; 6HR MAX TEMP:  88;

WINFIELD       SUNNY     92  65  40 S17       29.95F
6HR MIN TEMP:  70; 6HR MAX TEMP:  92;

$$

KSZ007>012-019>026-033>040-048>060-102>105-031900-
NORTHEAST KANSAS

CITY           SKY/WX    TMP DP  RH WIND       PRES   REMARKS
CONCORDIA      SUNNY     90  65  43 S17G25    29.85F
6HR MIN TEMP:  74; 6HR MAX TEMP:  90;

EMPORIA        SUNNY     90  66  45 S18G24    29.93F
6HR MIN TEMP:  70; 6HR MAX TEMP:  90;

LAWRENCE       SUNNY     90  70  51 S14G22    29.92F HX  95
6HR MIN TEMP:  71; 6HR MAX TEMP:  90;

MANHATTAN      SUNNY     94  64  37 S18G25    29.87F HX  95
6HR MIN TEMP:  74; 6HR MAX TEMP:  94;

OLATHE IND     SUNNY     88  67  49 S18       29.96F
6HR MIN TEMP:  71; 6HR MAX TEMP:  88;

OLATHE EXE     SUNNY     84  69  60 S12G20    29.95F
6HR MIN TEMP:  70; 6HR MAX TEMP:  85;

SALINA         SUNNY     95  63  34 S24G33    29.85F HX  96
6HR MIN TEMP:  76; 6HR MAX TEMP:  95;

TOPEKA BILLARD SUNNY     89  67  47 S14       29.90F
6HR MIN TEMP:  74; 6HR MAX TEMP:  90;

TOPEKA FORBES  SUNNY     90  70  51 S10       29.91F HX  95
6HR MIN TEMP:  74; 6HR MAX TEMP:  91;

$$



USA.gov is the U.S. government's official web portal to all federal, state and local government web resources and services.